Terminal Aerodrome Forecast
Issued by NWS Charleston, SC

Home | Current Version | Previous Version | Text Only | Print | Product List | Glossary On
Versions: 1 2 3 4 5 6 7 8 9 10 11 12 13 14
000
FTUS42 KCHS 292335
TAFCHS
TAF
KCHS 292335Z 3000/3024 19007KT P6SM SCT120 BKN200
     FM300200 22007KT P6SM SCT080 OVC120 WS010/22030KT
      TEMPO 3002/3006 -SHRA
     FM300600 24008KT P6SM BKN035 OVC080 WS010/25035KT
      TEMPO 3007/3011 6SM -SHRA BKN030
     FM301400 33013G22KT P6SM FEW030=

USA.gov is the U.S. government's official web portal to all federal, state and local government web resources and services.